Terminal Aerodrome Forecast
Issued by NWS

Current Version | Previous Version | Text Only | Print | Product List | Glossary Off
Versions: 1 2 3 4 5 6 7 8 9 10 11 12 13 14

000
FTUS41 KPBZ 221409 AAA
TAFHLG
TAF AMD
KHLG 221409Z 2214/2312 23007KT P6SM SCT090
     FM221600 26008KT P6SM VCSH BKN070
     FM221800 30015G25KT P6SM SCT070
     FM230100 VRB05KT P6SM SKC=

USA.gov is the U.S. government's official web portal to all federal, state and local government web resources and services.